Weather History for Nuiqsut, AK

Change the Weather History Date:

Thursday, December 15, 2011

  Actual Average (PAKU) Record (PAKU)
Temperature  
Mean Temperature -32 °F -  
Max Temperature -23 °F -1 °F 26 °F (2008)
Min Temperature -41 °F -8 °F -41 °F (2012)
Degree Days  
Heating Degree Days 97    
Moisture  
Dew Point -30 °F    
Average Humidity 82    
Maximum Humidity 91    
Minimum Humidity 75    
Precipitation  
Precipitation 0.00 in - - ()
Sea Level Pressure  
Sea Level Pressure 30.09 in    
Wind  
Wind Speed 6 mph (SSW)    
Max Wind Speed 10 mph    
Max Gust Speed -    
Visibility 6 miles    
Events      
Averages and records for this station are not official NWS values.
T = Trace of Precipitation, MM = Missing Value Source: NWS Daily Summary

Daily Weather History Graph

Daily Weather History Graph

Search for Another Location

Airport:

Trip Planner

Search our weather history database for the weather conditions in past years. The results will help you decide how hot, cold, wet, or windy it might be!

Date:

Astronomy

Dec. 31, 1969 Rise Set
Actual Time Sun does not rise Sun does not rise
Civil Twilight 10:56 AM AKST 3:01 PM AKST
Nautical Twilight 9:06 AM AKST 4:51 PM AKST
Astronomical Twilight 7:45 AM AKST 6:12 PM AKST
Moon 10:29 PM AKST (12/15) 12:44 PM AKST (12/15)
Length of Visible Light 4h 05m
Length of Day
0h 00m
Waning Gibbous, 73% of the Moon is Illuminated
Dec 15
Waning Gibbous
Dec 17
Last Quarter
Dec 24
New
Dec 31
First Quarter
Jan 8
Full

Hourly Weather History & Observations

Time (AKST) Temp. Windchill Dew Point Humidity Pressure Visibility Wind Dir Wind Speed Gust Speed Precip Events Conditions
12:53 AM -40.0 °F -61.1 °F - N/A% 30.24 in 10.0 mi South 6.9 mph - N/A   Clear
1:53 AM -41.1 °F -60.3 °F - N/A% 30.23 in 10.0 mi SSW 5.8 mph - N/A   Clear
3:53 AM -41.1 °F -60.3 °F - N/A% 30.21 in 8.0 mi SSW 5.8 mph - N/A   Clear
4:53 AM -41.1 °F -60.3 °F - N/A% 30.19 in 9.0 mi SSW 5.8 mph - N/A   Clear
5:40 AM -40.0 °F -59.0 °F - N/A% 30.17 in 10.0 mi SSW 5.8 mph - N/A   Mostly Cloudy
5:53 AM -38.9 °F -57.8 °F - N/A% 30.18 in 10.0 mi SSW 5.8 mph - N/A   Overcast
6:50 AM -38.2 °F -60.7 °F - N/A% 30.16 in 8.0 mi South 8.1 mph - N/A   Overcast
6:53 AM -38.9 °F -61.6 °F - N/A% 30.17 in 8.0 mi South 8.1 mph - N/A   Overcast
7:53 AM -36.9 °F -55.4 °F - N/A% 30.15 in 7.0 mi SSW 5.8 mph - N/A   Overcast
8:20 AM -36.4 °F - - N/A% 30.13 in 8.0 mi Calm Calm - N/A   Overcast
8:53 AM -35.0 °F -53.1 °F - N/A% 30.13 in 5.0 mi SSW 5.8 mph - N/A   Haze
9:53 AM -33.0 °F -50.7 °F - N/A% 30.13 in 5.0 mi SSW 5.8 mph - N/A   Haze
10:53 AM -31.0 °F -48.4 °F - N/A% 30.12 in 4.0 mi SSW 5.8 mph - N/A   Haze
11:53 AM -31.0 °F -51.9 °F - N/A% 30.11 in 4.0 mi SSW 8.1 mph - N/A   Haze
12:24 PM -31.0 °F -51.9 °F - N/A% 30.09 in 4.0 mi South 8.1 mph - N/A   Haze
12:53 PM -31.0 °F -50.3 °F - N/A% 30.09 in 6.0 mi SSW 6.9 mph - N/A   Haze
1:53 PM -31.0 °F -48.4 °F - N/A% 30.07 in 6.0 mi SSW 5.8 mph - N/A   Haze
2:08 PM -29.2 °F -46.2 °F - N/A% 30.06 in 6.0 mi SSW 5.8 mph - N/A   Haze
2:18 PM -29.2 °F -46.2 °F - N/A% 30.06 in 7.0 mi SSW 5.8 mph - N/A   Overcast
2:53 PM -29.0 °F -46.0 °F -34.1 °F 77% 30.06 in 6.0 mi SSW 5.8 mph - N/A   Haze
3:10 PM -29.2 °F -44.0 °F -34.6 °F 75% 30.05 in 7.0 mi SW 4.6 mph - N/A   Overcast
3:53 PM -27.9 °F -44.7 °F -33.0 °F 77% 30.03 in 7.0 mi South 5.8 mph - N/A   Overcast
4:11 PM -27.4 °F -44.1 °F -32.8 °F 75% 30.02 in 5.0 mi SSW 5.8 mph - N/A   Haze
4:53 PM -26.0 °F -45.8 °F -29.9 °F 81% 30.02 in 5.0 mi South 8.1 mph - N/A   Overcast
5:37 PM -27.4 °F -50.3 °F -29.2 °F 91% 30.02 in 2.5 mi South 10.4 mph - N/A   Overcast
5:53 PM -27.0 °F -48.5 °F -29.9 °F 86% 30.03 in 1.8 mi South 9.2 mph - N/A   Overcast
6:18 PM -25.6 °F -43.8 °F -29.2 °F 83% 30.02 in 3.0 mi SSW 6.9 mph - N/A   Overcast
6:53 PM -26.0 °F -44.2 °F -29.0 °F 85% 30.02 in 7.0 mi SSW 6.9 mph - N/A   Overcast
7:53 PM -24.0 °F -37.9 °F -27.9 °F 82% 30.02 in 7.0 mi SSW 4.6 mph - N/A   Overcast
8:45 PM -23.8 °F -39.8 °F -27.4 °F 83% 30.01 in 2.0 mi South 5.8 mph - N/A   Overcast
8:53 PM -24.0 °F -40.0 °F -27.0 °F 86% 30.02 in 3.0 mi South 5.8 mph - N/A   Overcast
9:53 PM -25.1 °F -43.1 °F -29.0 °F 82% 30.01 in 4.0 mi South 6.9 mph - N/A   Overcast
10:23 PM -25.6 °F -48.0 °F -29.2 °F 83% 30.02 in 6.0 mi South 10.4 mph - N/A   Haze
10:53 PM -26.0 °F -48.5 °F -29.9 °F 81% 30.02 in 5.0 mi South 10.4 mph - N/A   Overcast
11:53 PM -24.0 °F -37.9 °F -27.9 °F 82% 30.02 in 6.0 mi SW 4.6 mph - N/A   Overcast